Weather reports worldwide

Advertisment
Barcelona/Aeropuerto, Spain (8181): temperature & dewpoint: 30.03.2020 22:00:00 - 05.04.2020 22:00:00 (CEST)Barcelona/Aeropuerto, Spain (8181): wind speed: 30.03.2020 22:00:00 - 05.04.2020 22:00:00 (CEST)Barcelona/Aeropuerto, Spain (8181): wind direction: 30.03.2020 22:00:00 - 05.04.2020 22:00:00 (CEST)Barcelona/Aeropuerto, Spain (8181): reduced air pressure: 30.03.2020 22:00:00 - 05.04.2020 22:00:00 (CEST)Barcelona/Aeropuerto, Spain (8181): visibility: 30.03.2020 22:00:00 - 05.04.2020 22:00:00 (CEST)
Date & Time tt [°C] td [°C] ff [km/h] ff [kn] dd ppp [hPa] vv [km]
05.04.2020 22:00:00 13,0 10,0 8 4 W 1021,2 25
05.04.2020 21:00:00 13,5 10,3 8 4 WSW 1020,5 30
05.04.2020 20:00:00 14,6 10,2 11 6 WSW 1020,4 30
05.04.2020 19:00:00 16,0 10,2 16 9 WSW 1020,4 30
05.04.2020 18:00:00 16,5 10,1 15 8 SW 1020,4 30
05.04.2020 17:00:00 17,1 9,9 16 9 SW 1020,7 29
05.04.2020 16:00:00 17,1 10,2 16 9 SW 1020,9 23
05.04.2020 15:00:00 17,1 9,7 15 8 SSW 1021,4 21
05.04.2020 14:00:00 17,3 9,9 13 7 SSW 1021,7 30
05.04.2020 13:00:00 16,9 9,6 13 7 SW 1022,2 30
05.04.2020 12:00:00 16,5 8,5 11 6 SW 1022,3 26
05.04.2020 11:00:00 15,9 7,3 4 2 NNE 1022,4 35
05.04.2020 10:00:00 12,0 6,2 15 8 N 1022,1 30
05.04.2020 09:00:00 9,7 6,0 11 6 N 1022,0 30
05.04.2020 08:00:00 7,9 5,5 15 8 N 1021,5 30
05.04.2020 07:00:00 8,3 5,9 18 10 N 1020,8 24
05.04.2020 06:00:00 8,7 7,6 18 10 N 1020,6 11
05.04.2020 05:00:00 9,1 8,2 13 7 N 1020,7 9
05.04.2020 04:00:00 9,6 8,2 16 9 N 1020,9 13
05.04.2020 03:00:00 9,1 7,2 11 6 N 1021,5 27
05.04.2020 02:00:00 9,2 7,0 9 5 N 1021,9 30
05.04.2020 01:00:00 10,0 7,2 4 2 N 1021,8 28
05.04.2020 00:00:00 11,1 9,0 4 2 N 1021,7 19
04.04.2020 23:00:00 12,7 11,3 5 3 W 1021,5 30
04.04.2020 22:00:00 13,3 11,5 9 5 WSW 1021,3 23
04.04.2020 21:00:00 13,6 11,3 11 6 WSW 1020,5 24
04.04.2020 20:00:00 14,7 11,7 16 9 WSW 1020,2 35
04.04.2020 19:00:00 15,8 11,2 18 10 SW 1020,0 30
04.04.2020 18:00:00 16,5 11,1 18 10 WSW 1019,9 30
04.04.2020 17:00:00 16,8 9,4 22 12 WSW 1020,0 35
04.04.2020 16:00:00 16,7 10,0 24 13 SW 1020,4 26
04.04.2020 15:00:00 16,6 10,6 24 13 SW 1020,7 21
04.04.2020 14:00:00 16,0 11,0 15 8 SSW 1020,8 30
04.04.2020 13:00:00 16,8 9,8 11 6 SSW 1021,0 30
04.04.2020 12:00:00 16,3 8,0 9 5 S 1021,2 27
04.04.2020 11:00:00 15,4 8,2 4 2 N 1021,0 30
04.04.2020 10:00:00 13,0 7,7 9 5 NNE 1020,4 27
04.04.2020 09:00:00 9,9 6,6 13 7 N 1020,0 23
04.04.2020 08:00:00 8,8 6,1 15 8 N 1019,3 25
04.04.2020 07:00:00 8,8 6,1 16 9 N 1018,9 21
04.04.2020 06:00:00 9,0 6,3 13 7 N 1018,7 30
04.04.2020 05:00:00 8,5 6,3 11 6 N 1018,9 24
04.04.2020 04:00:00 8,8 6,1 4 2 NNW 1019,1 20
04.04.2020 03:00:00 8,8 6,4 11 6 N 1019,3 23
04.04.2020 02:00:00 8,9 6,3 5 3 N 1019,4 30
04.04.2020 01:00:00 9,8 6,3 4 2 NNW 1019,3 30
04.04.2020 00:00:00 10,8 6,5 5 3 N 1018,9 30
03.04.2020 23:00:00 12,5 8,8 8 4 W 1018,5 18
03.04.2020 22:00:00 13,1 8,4 4 2 WSW 1018,2 30
03.04.2020 21:00:00 13,3 8,0 9 5 WSW 1017,5 30
03.04.2020 20:00:00 14,6 8,1 15 8 WSW 1017,0 30
03.04.2020 19:00:00 15,5 7,4 24 13 WSW 1016,6 30
03.04.2020 18:00:00 16,2 6,5 22 12 WSW 1016,2 30
03.04.2020 17:00:00 16,8 5,2 24 13 WSW 1016,0 30
03.04.2020 16:00:00 16,7 5,9 22 12 WSW 1016,2 30
03.04.2020 15:00:00 16,4 8,5 26 14 SW 1016,3 30
03.04.2020 14:00:00 15,8 9,7 22 12 WSW 1016,6 30
03.04.2020 13:00:00 16,0 7,8 15 8 SW 1016,8 30
03.04.2020 12:00:00 16,8 8,2 8 4 WNW 1016,6 23
03.04.2020 11:00:00 14,3 7,8 16 9 N 1016,4 30
03.04.2020 10:00:00 13,0 8,0 16 9 N 1016,0 26
03.04.2020 09:00:00 10,1 7,3 15 8 N 1015,4 20
03.04.2020 08:00:00 8,5 6,6 13 7 NNE 1014,6 28
03.04.2020 07:00:00 8,1 6,9 13 7 N 1014,0 21
03.04.2020 06:00:00 8,9 7,3 5 3 N 1013,8 18
03.04.2020 05:00:00 8,4 6,9 9 5 N 1013,8 15
03.04.2020 04:00:00 8,7 6,8 0 0 N 1013,7 20
03.04.2020 03:00:00 9,7 7,6 4 2 W 1014,1 27
03.04.2020 02:00:00 10,3 8,1 4 2 NW 1014,3 17
03.04.2020 01:00:00 10,9 8,1 4 2 NNW 1014,2 17
03.04.2020 00:00:00 11,8 7,9 5 3 N 1014,5 22
02.04.2020 23:00:00 12,2 7,7 18 10 E 1014,3 30
02.04.2020 22:00:00 12,3 7,4 22 12 E 1013,9 30
02.04.2020 21:00:00 12,9 7,2 24 13 E 1013,3 30
02.04.2020 20:00:00 13,4 7,6 31 17 E 1012,5 27
02.04.2020 19:00:00 14,1 6,9 39 21 E 1012,2 27
02.04.2020 18:00:00 14,7 7,2 39 21 E 1011,8 17
02.04.2020 17:00:00 14,5 7,1 41 22 E 1011,8 30
02.04.2020 16:00:00 14,1 6,9 41 22 E 1011,8 30
02.04.2020 15:00:00 13,4 7,1 37 20 E 1012,1 27
02.04.2020 14:00:00 12,9 7,9 35 19 E 1012,4 12
02.04.2020 13:00:00 13,1 6,7 34 18 E 1012,7 28
02.04.2020 12:00:00 13,0 5,9 31 17 ENE 1012,5 30
02.04.2020 11:00:00 - - - - - - 35
02.04.2020 10:00:00 11,9 6,4 26 14 ENE 1011,8 30
02.04.2020 09:00:00 11,6 7,0 24 13 NE 1011,4 30
02.04.2020 08:00:00 11,4 7,3 26 14 NE 1011,0 30
02.04.2020 07:00:00 11,4 7,4 22 12 NE 1011,0 30
02.04.2020 06:00:00 11,1 7,5 24 13 NE 1011,2 30
02.04.2020 05:00:00 11,0 8,0 21 11 NE 1011,4 15
02.04.2020 04:00:00 11,1 7,8 18 10 NE 1011,9 30
02.04.2020 03:00:00 10,9 8,1 26 14 ENE 1012,2 30
02.04.2020 02:00:00 11,0 8,4 24 13 ENE 1012,8 15
02.04.2020 01:00:00 11,1 8,7 29 16 ENE 1013,3 26
02.04.2020 00:00:00 11,0 9,6 35 19 E 1013,6 21
01.04.2020 23:00:00 11,1 9,7 34 18 ENE 1013,8 15
01.04.2020 22:00:00 11,0 9,6 42 23 E 1013,8 16
01.04.2020 21:00:00 10,9 9,8 39 21 ENE 1013,3 14
01.04.2020 20:00:00 10,9 9,7 46 25 E 1012,9 11
01.04.2020 19:00:00 10,5 9,9 54 29 E 1012,4 -
01.04.2020 18:00:00 10,8 10,0 42 23 E 1013,3 -
01.04.2020 17:00:00 10,9 10,1 48 26 E 1013,1 3,5
01.04.2020 16:00:00 10,7 9,6 50 27 E 1013,4 6
01.04.2020 15:00:00 11,4 10,3 52 28 E 1013,6 2,8
01.04.2020 14:00:00 12,8 10,9 48 26 ENE 1014,1 12
01.04.2020 13:00:00 12,3 10,7 44 24 ENE 1014,7 19
01.04.2020 12:00:00 11,9 10,4 46 25 ENE 1015,3 11
01.04.2020 11:00:00 11,9 10,0 44 24 ENE 1015,4 8
01.04.2020 10:00:00 11,9 10,1 44 24 ENE 1015,4 7
01.04.2020 09:00:00 11,7 9,9 42 23 E 1015,2 12
01.04.2020 08:00:00 11,9 10,3 42 23 E 1014,9 11
01.04.2020 07:00:00 12,2 10,7 44 24 E 1014,7 9
01.04.2020 06:00:00 12,5 11,1 37 20 E 1014,8 10
01.04.2020 05:00:00 12,5 11,1 39 21 E 1014,9 13
01.04.2020 04:00:00 12,8 11,0 35 19 E 1014,9 15
01.04.2020 03:00:00 12,8 10,9 35 19 E 1015,3 18
01.04.2020 02:00:00 13,0 10,6 35 19 E 1015,5 25
01.04.2020 01:00:00 13,0 10,4 29 16 E 1015,6 24
01.04.2020 00:00:00 12,7 9,7 26 14 ENE 1015,6 24
31.03.2020 23:00:00 12,9 9,7 28 15 E 1015,5 21
31.03.2020 22:00:00 12,8 9,5 34 18 ENE 1015,1 26
31.03.2020 21:00:00 12,2 9,2 34 18 ENE 1014,5 23
31.03.2020 20:00:00 12,2 8,7 39 21 ENE 1014,0 9
31.03.2020 19:00:00 12,2 9,0 35 19 E 1013,9 26
31.03.2020 18:00:00 12,1 9,6 39 21 ENE 1013,2 14
31.03.2020 17:00:00 12,0 9,6 35 19 E 1013,2 7
31.03.2020 16:00:00 12,0 9,0 31 17 E 1013,7 13
31.03.2020 15:00:00 11,6 8,1 35 19 E 1013,8 15
31.03.2020 14:00:00 11,6 8,2 35 19 E 1014,2 9
31.03.2020 13:00:00 13,0 6,4 37 20 E 1014,2 30
31.03.2020 12:00:00 12,5 6,1 39 21 E 1014,1 30
31.03.2020 11:00:00 12,0 5,7 35 19 E 1014,4 20
31.03.2020 10:00:00 11,1 5,7 34 18 E 1014,5 30
31.03.2020 09:00:00 10,6 6,2 37 20 E 1014,3 28
31.03.2020 08:00:00 10,8 5,6 29 16 ENE 1014,2 30
31.03.2020 07:00:00 10,8 4,9 35 19 E 1013,4 30
31.03.2020 06:00:00 10,6 5,3 34 18 E 1013,8 30
31.03.2020 05:00:00 10,6 4,6 34 18 E 1013,9 30
31.03.2020 04:00:00 9,7 6,7 15 8 ENE 1014,3 30
31.03.2020 03:00:00 8,8 6,9 11 6 N 1014,8 28
31.03.2020 02:00:00 8,3 6,4 15 8 N 1014,8 25
31.03.2020 01:00:00 8,3 5,9 16 9 N 1015,3 12
31.03.2020 00:00:00 8,5 5,4 16 9 N 1015,4 24
30.03.2020 23:00:00 8,4 5,4 16 9 N 1015,5 25
30.03.2020 22:00:00 8,3 5,8 15 8 N 1015,7 28

tt = temperature
td = dewpoint
ff = wind speed
dd = wind direction
ppp = reduced air pressure
vv = visibility

Next stations